#timestamp,LO_Frequency,Hit,StdDev 
1663783215.5,286046999.7,N
1663783235.3,286047002.4,N
1663783255.1,286047002.8,N
1663783275.9,286047002.2,N
1663783295.7,286047002.3,N
1663783315.5,286047002.5,N
1663783335.4,286047001.8,N
1663783355.2,286047000.5,N
1663783375.1,286047002.4,N
1663783376.0,286047002.4,N
1663783395.8,286047000.9,N
1663783415.6,286047001.1,N
1663783435.5,286047000.8,N
1663783455.3,286047000.0,N
1663783475.1,286047002.8,N
1663783495.9,286047002.3,N
1663783515.7,286047002.6,N
1663783535.6,286047000.8,N
1663783555.4,286047000.6,N
1663783575.2,286046996.8,N
1663783595.1,286046999.5,N
1663783596.0,286046999.5,N
1663783615.8,286047001.0,N
1663783635.6,286047000.0,N
1663783655.5,286046999.8,N
1663783675.3,286047002.7,N
1663783695.2,286047000.2,N
1663783715.9,286046998.6,N
1663783735.7,286046998.8,N
1663783755.6,286047000.8,N
1663783775.4,286046999.9,N
1663783795.2,286047001.3,N
1663783815.1,286047001.5,N
1663783816.0,286047001.5,N
1663783835.8,286047001.7,N
1663783855.7,286047001.6,N
1663783875.5,286047001.7,N
1663783895.3,286047001.9,N
1663783915.2,286047003.9,N
1663783935.0,286047001.8,N
1663783935.9,286047001.8,N
1663783955.8,286047002.6,N
1663783975.6,286047002.6,N
1663783995.4,286047000.1,N
1663784015.3,286046999.7,N
1663784035.1,286046998.9,N
1663784055.8,286046996.8,N
1663784075.7,286046998.7,N
1663784095.5,286047000.0,N
1663784115.4,286047002.3,N
1663784135.2,286047002.2,N
1663784155.1,286047002.8,N
1663784156.0,286047002.8,N
1663784175.8,286047000.2,N
1663784195.6,286046999.3,N
1663784215.5,286046997.5,N
1663784235.3,286047001.2,N
1663784255.1,286047000.4,N
1663784275.9,286046998.1,N
1663784295.7,286047002.5,N
1663784315.6,286047002.0,N
1663784335.4,286047002.8,N
1663784355.2,286047000.0,N
1663784375.1,286047002.2,N
1663784376.0,286047002.2,N
1663784395.8,286047002.0,N
1663784415.7,286047000.9,N
1663784435.5,286047001.1,N
1663784455.3,286047001.2,N
1663784475.2,286046999.7,N
1663784495.0,286047002.6,N
1663784495.9,286047002.6,N
1663784515.8,286047002.0,N
1663784535.6,286047000.4,N
1663784555.4,286046999.4,N
1663784575.3,286046996.8,N
1663784595.1,286046999.3,N
1663784615.8,286046998.7,N
1663784635.7,286046998.1,N
1663784655.5,286047001.1,N
1663784675.4,286046996.5,N
1663784695.2,286046998.7,N
1663784715.0,286047000.3,N
1663784715.9,286047000.3,N
1663784735.8,286047002.8,N
1663784755.6,286047002.7,N
1663784775.4,286047004.4,N
1663784795.3,286047004.2,N
1663784815.1,286047003.7,N
1663784835.9,286047002.0,N
1663784855.7,286047002.4,N
1663784875.5,286047000.1,N
1663784895.4,286046999.8,N
1663784915.2,286046999.0,N
1663784935.0,286047001.2,N
1663784936.0,286047001.2,N
1663784955.8,286047001.2,N
1663784975.6,286047001.0,N
1663784995.5,286047002.7,N
1663785015.3,286047002.1,N
1663785035.2,286047001.6,N
1663785055.9,286047004.1,N
1663785075.7,286047001.6,N
1663785095.6,286047001.5,N
1663785115.4,286047002.7,N
1663785135.2,286047002.6,N
1663785155.1,286046998.3,N
1663785156.0,286046998.3,N
1663785175.8,286046998.9,N
1663785195.7,286047000.0,N
1663785215.5,286047002.7,N
1663785235.3,286047002.0,N
1663785255.2,286047000.4,N
1663785275.0,286047000.4,N
1663785275.9,286047000.4,N
1663785295.8,286047001.9,N
1663785315.6,286047003.6,N
1663785335.4,286047004.6,N
1663785355.3,286047005.2,Y
1663785375.1,286047003.9,P
1663785395.9,286047002.1,N
1663785415.7,286046999.9,N
1663785435.5,286046998.7,N
1663785455.4,286047000.7,N
1663785475.2,286047002.6,N
1663785495.0,286047002.5,N
1663785495.9,286047002.5,N
1663785515.8,286047000.9,N
1663785535.6,286047000.6,N
1663785555.5,286046998.5,N
1663785575.3,286046997.4,N
1663785595.1,286046997.6,N
1663785615.9,286046997.0,N
1663785635.7,286046998.1,N
1663785655.5,286047000.4,N
1663785675.4,286047002.1,N
1663785695.2,286047001.7,N
1663785715.1,286047003.8,N
1663785716.0,286047003.8,N
1663785735.8,286047002.6,N
1663785755.7,286047002.0,N
1663785775.5,286047003.8,N
1663785795.3,286047003.2,N
1663785815.2,286047005.3,N
1663785835.9,286047002.3,N
1663785855.7,286047004.4,N
1663785875.6,286047003.8,N
1663785895.4,286047003.6,N
1663785915.3,286047001.4,N
1663785935.1,286046999.8,N
1663785936.0,286046999.8,N
1663785955.8,286047000.4,N
1663785975.7,286047001.9,N
1663785995.5,286047002.5,N
1663786015.3,286047001.7,N
1663786035.2,286047003.2,N
1663786055.0,286047005.6,N
1663786055.9,286047005.6,N
1663786075.8,286047002.6,N
1663786095.6,286047001.0,N
1663786115.4,286047000.9,N
1663786135.3,286047000.5,N
1663786155.1,286047001.4,N
1663786175.8,286047001.8,N
1663786195.7,286047001.8,N
1663786215.5,286047001.7,N
1663786235.4,286046999.9,N
1663786255.2,286046999.5,N
1663786275.0,286046998.8,N
1663786275.9,286046998.8,N
1663786295.8,286047001.1,N
1663786315.6,286047001.8,N
1663786335.4,286047001.6,N
1663786355.3,286047003.3,N
1663786375.1,286047003.9,N
1663786395.9,286047003.6,N
1663786415.7,286047001.8,N
1663786435.5,286047001.5,N
1663786455.4,286047005.5,Y
1663786475.2,286047003.5,P
1663786495.1,286047004.1,P
1663786496.0,286047004.1,P
1663786515.8,286047004.2,Y
1663786535.6,286047000.7,P
1663786555.5,286046999.4,N
1663786575.3,286046999.2,N
1663786595.2,286046998.7,N
1663786615.9,286046997.6,N
1663786635.7,286046997.7,N
1663786655.6,286046995.9,N
1663786675.4,286046996.2,N
1663786695.2,286046997.9,N
1663786715.1,286046999.6,N
1663786716.0,286046999.6,N
1663786735.8,286046995.0,N
1663786755.7,286046993.9,N
1663786775.5,286046995.6,N
1663786795.3,286046995.9,N
